GFSNE_500_avort_177.txt.gz
Vorticity
4 -3 -7 5 10 10 6 7 7 7 8 6 12 8 5 9 9 4 3 2 3 4 3 3 3 4 5 5 5 4 4 4 5 5 3 1 2 2
3 5 4 13 9 8 8 6 3 3 6 8 4 7 8 2 2 2 5 4 3 4 4 4 4 5 6 6 7 7 8 8 8 8 7 5 3 2
-6 19 8 5 9 9 6 4 4 9 8 5 9 5 2 2 5 3 3 3 4 4 4 6 10 11 13 13 13 14 15 17 19 18 16 15 14 13
19 5 9 14 11 6 4 6 9 5 10 8 1 1 5 4 4 4 3 3 5 5 8 12 14 17 18 19 21 21 21 20 19 18 19 16 19 18
8 10 13 10 6 3 9 7 6 10 3 0 5 6 5 5 3 3 4 6 9 12 15 20 25 25 25 24 24 25 26 24 20 25 21 21 21 19
8 12 7 4 6 10 4 12 4 0 3 6 4 4 3 2 2 5 5 9 17 25 26 24 26 23 29 38 43 39 39 36 38 39 38 41 39 34
9 6 4 9 7 7 9 1 1 6 6 4 1 0 1 2 3 5 9 19 30 25 24 23 31 31 22 17 18 19 21 23 25 26 27 26 26 32
5 6 10 5 9 3 2 5 6 5 3 2 3 4 4 6 10 14 27 29 30 26 32 37 20 23 25 23 22 20 18 18 18 20 20 23 26 29
9 8 9 9 2 2 5 4 4 3 2 5 5 5 9 13 20 27 29 28 32 31 20 23 25 23 21 22 21 17 13 14 13 12 14 17 17 21
6 8 4 2 4 2 5 4 2 4 5 4 6 12 18 23 25 26 26 34 25 17 20 21 15 17 19 17 17 16 18 17 17 18 15 13 15 16
6 4 4 3 1 4 2 2 3 5 6 8 14 20 24 28 25 25 29 28 17 15 12 13 14 17 18 15 14 18 25 25 24 24 27 26 24 23
4 4 2 0 6 4 4 5 6 7 7 13 21 26 25 25 24 27 28 16 12 17 23 21 17 17 21 19 18 20 24 23 27 27 22 19 18 19
2 0 2 8 4 5 7 8 8 11 15 24 29 21 24 27 24 28 16 11 21 23 3 5 8 8 9 10 15 17 21 26 28 11 8 4 8 21
-2 5 7 4 6 7 7 8 10 17 25 27 16 19 31 27 19 19 13 18 11 3 0 10 8 10 7 7 7 8 14 17 16 10 2 8 11 1
9 4 5 6 7 5 11 13 19 24 23 11 19 32 27 23 16 18 15 15 4 8 9 9 10 9 9 7 6 6 7 6 13 8 2 5 11 7
3 5 6 6 7 11 12 21 19 16 14 17 28 28 31 11 19 16 18 5 8 10 11 11 10 12 11 9 8 8 6 10 11 13 7 3 4 10
7 6 5 6 10 16 19 15 16 17 16 20 33 27 16 10 21 17 8 3 10 11 10 12 10 11 11 12 11 8 10 7 6 10 15 16 8 4
6 4 8 12 18 15 14 15 21 16 14 28 24 23 8 18 20 13 2 11 11 9 13 16 12 9 6 5 7 14 15 11 12 12 16 21 15 10
4 6 13 14 13 14 17 22 19 13 16 25 14 23 10 17 17 6 9 12 10 11 14 14 11 9 11 11 6 3 10 10 10 10 10 9 11 11
7 12 13 14 15 16 20 23 13 17 16 17 9 21 11 17 14 7 12 10 9 15 11 9 8 8 8 8 9 6 6 8 8 8 8 8 8 11
11 15 13 15 15 21 27 15 17 15 14 18 8 19 11 16 13 9 10 7 10 15 10 10 8 8 8 9 10 9 10 11 13 12 12 12 9 7
14 13 14 16 21 27 20 12 20 11 15 25 9 16 12 14 14 10 9 7 8 14 9 8 7 8 8 9 9 12 13 12 12 12 12 14 15 14
11 15 15 20 30 23 8 17 16 5 30 20 9 18 11 12 14 15 11 6 9 14 11 7 7 8 10 11 12 13 13 13 13 11 9 13 14 14

GFSNE_500_avort_180.txt.gz
Vorticity
14 4 9 4 -8 -3 -1 30 10 11 9 7 5 6 9 9 8 9 6 2 4 6 5 5 3 2 2 4 5 5 4 4 6 8 9 10 9 7
10 6 3 6 10 7 0 38 2 8 8 5 6 7 6 6 4 1 3 7 5 3 1 2 2 3 3 5 7 9 11 12 14 14 13 16 15 14
-3 9 -1 2 -7 6 9 12 10 8 6 7 8 7 6 4 1 5 6 2 1 3 3 4 4 6 8 10 13 15 17 17 19 22 26 26 26 27
-2 5 -4 4 15 9 11 8 7 6 9 4 8 4 3 5 6 5 3 2 4 3 3 4 7 11 18 15 20 22 25 29 31 38 45 44 50 50
3 -2 3 8 2 9 8 6 6 9 8 8 4 3 4 5 4 3 3 3 3 3 5 10 19 18 18 25 31 33 41 46 37 25 24 22 21 24
3 2 8 1 14 8 5 8 8 10 4 2 2 4 5 3 4 4 3 3 4 8 18 23 22 25 30 34 39 30 27 28 25 23 23 24 25 26
20 3 4 9 8 6 10 10 6 5 2 -0 8 5 5 4 4 3 3 6 13 18 26 24 27 36 38 27 23 20 18 18 19 20 19 21 22 23
3 9 7 7 7 10 7 4 4 -0 2 7 4 5 4 5 4 4 7 21 33 23 26 35 41 25 18 14 17 19 19 18 15 13 14 14 15 17
9 8 6 9 8 7 3 1 0 7 7 6 4 5 5 5 6 12 26 30 29 29 33 44 16 16 28 25 16 17 18 17 18 19 21 23 24 21
7 7 10 6 4 3 -2 3 7 4 6 5 6 8 7 8 18 25 27 29 32 35 32 14 20 22 2 9 11 10 14 17 18 22 25 29 28 29
8 6 5 4 4 -0 6 5 6 5 5 5 5 5 12 24 25 26 24 29 38 22 14 20 9 4 10 9 14 11 10 14 16 20 23 22 14 11
8 6 2 0 -1 8 5 4 4 4 4 4 6 15 26 24 23 19 25 36 35 10 17 9 3 8 9 11 11 8 10 8 7 12 17 16 16 12
4 4 0 3 10 4 5 7 6 4 4 5 18 27 26 19 15 26 32 34 19 12 13 3 8 10 9 10 12 10 9 8 8 7 7 13 11 3
3 -0 7 7 4 5 8 5 4 5 10 25 24 24 21 16 22 32 22 22 15 17 3 8 10 10 11 12 9 8 8 7 9 7 7 5 10 6
2 9 3 3 5 7 4 3 6 13 20 23 19 20 14 18 23 28 12 24 18 11 3 11 11 11 13 13 12 7 10 8 7 9 9 8 9 13
7 3 4 5 5 3 3 8 15 16 22 18 22 17 14 21 24 18 15 22 13 5 8 11 13 15 11 10 10 10 9 9 7 9 11 12 8 13
3 4 5 4 3 5 10 12 18 21 17 24 19 12 15 19 24 13 15 18 8 8 12 10 14 12 9 9 7 8 10 10 10 10 11 15 8 7
5 5 4 3 6 7 11 19 19 17 22 24 11 13 15 19 19 13 14 16 7 11 10 11 18 13 8 5 6 8 8 10 10 11 12 13 10 6
4 4 3 6 8 12 16 18 20 22 24 15 12 13 10 24 14 14 14 14 8 12 9 13 16 11 11 10 3 6 10 10 13 12 12 12 14 11
4 3 5 8 10 16 18 21 25 24 17 8 20 8 21 25 15 14 14 14 10 9 8 10 13 10 9 9 8 4 7 11 12 13 13 13 12 12
3 4 8 11 16 19 19 24 26 20 7 18 14 14 21 6 18 14 11 15 12 10 7 8 14 11 8 9 9 9 8 10 11 12 12 14 15 12
6 8 10 14 18 19 23 26 22 11 6 21 8 12 19 3 15 16 11 15 15 13 10 9 12 12 7 10 10 10 11 12 10 9 9 14 17 20
7 10 13 18 19 25 28 26 6 11 10 21 12 16 19 8 17 14 14 15 13 14 15 10 12 9 7 9 10 10 11 13 14 13 7 10 14 15

GFSNE_500_avort_183.txt.gz
Vorticity
5 12 -0 11 2 21 13 2 5 2 11 18 8 12 8 7 6 7 7 7 6 4 2 4 7 5 4 4 3 3 5 6 6 5 7 6 8 10
-2 9 -14 22 3 11 7 -0 4 4 13 9 10 7 7 9 9 8 5 4 2 2 7 7 5 4 4 4 5 5 6 11 14 14 13 15 20 23
3 4 10 10 0 -1 14 7 12 13 5 9 7 7 8 7 3 2 2 0 4 8 5 4 4 5 6 5 12 16 17 16 18 23 31 35 38 49
9 2 11 5 -0 15 -4 29 0 5 10 6 7 7 4 3 3 4 3 9 4 4 3 4 4 6 15 17 19 18 22 33 37 44 52 43 26 24
-8 -11 10 15 12 9 7 3 6 8 9 8 5 4 2 5 2 7 5 4 4 4 4 5 10 19 18 21 25 28 35 51 32 20 16 16 18 19
4 15 24 17 8 19 3 8 9 7 7 5 4 4 2 5 9 4 4 5 3 5 7 16 21 20 24 24 30 45 33 25 25 27 26 22 17 15
-2 4 5 5 4 7 8 8 7 5 5 3 5 2 9 6 4 5 2 4 5 10 24 18 27 24 26 36 34 29 22 6 7 11 13 15 16 17
22 1 9 5 7 9 7 7 2 3 2 2 5 8 5 5 3 3 6 8 19 15 28 27 26 27 41 27 31 2 10 8 10 14 15 18 20 23
14 3 6 8 8 6 5 3 5 5 3 8 7 5 4 2 4 5 8 19 21 14 22 33 32 39 20 23 1 11 10 14 12 12 10 13 17 19
2 4 7 6 5 6 5 5 1 4 11 4 6 6 4 5 6 10 14 27 24 21 20 42 33 19 17 1 9 12 11 11 12 10 9 9 7 11
6 7 6 5 6 4 3 2 7 7 5 6 4 5 6 8 11 20 19 21 24 26 26 35 19 15 6 8 10 12 14 12 10 8 8 8 9 10
6 6 5 4 4 3 4 10 3 3 6 3 6 8 9 15 22 21 23 21 20 34 27 24 16 9 5 10 10 14 15 10 7 7 8 8 9 7
5 6 5 3 5 7 7 4 4 5 2 4 5 9 17 20 21 24 19 16 21 30 29 15 11 4 8 10 12 13 11 10 9 7 8 8 7 9
6 6 4 6 9 6 4 5 5 4 5 5 10 14 21 23 22 20 14 18 25 29 20 17 5 6 12 10 14 13 9 9 7 7 10 9 8 8
6 4 6 7 5 3 5 5 4 4 4 10 16 21 21 26 22 13 12 21 21 18 19 12 4 13 11 14 15 11 12 9 6 9 11 10 10 10
5 5 6 4 3 5 5 4 3 4 8 13 19 25 28 26 11 14 9 24 15 11 21 6 9 13 12 18 12 11 10 10 9 9 13 12 10 10
7 6 4 4 6 4 4 3 6 7 13 19 26 29 27 12 13 11 17 26 16 10 15 8 11 10 16 15 10 8 8 7 7 8 11 13 10 11
6 3 4 5 3 3 3 4 7 13 18 25 29 27 14 7 16 11 24 16 18 11 14 9 10 10 13 13 10 8 7 9 8 8 11 13 13 11
3 4 5 3 3 3 4 7 12 19 25 31 28 17 8 10 16 13 13 7 21 10 14 11 9 9 10 16 6 5 11 9 10 9 11 12 13 10
4 4 3 3 4 4 7 12 20 26 29 28 18 8 5 14 17 13 18 7 19 12 13 14 9 10 9 16 12 2 5 12 12 11 11 13 13 11
4 3 4 5 5 8 12 23 28 26 27 22 6 7 4 20 14 18 18 10 18 13 14 15 12 13 10 13 12 8 4 7 13 13 13 18 16 13
3 4 6 5 8 11 22 29 26 24 23 8 7 6 8 27 11 13 17 21 15 13 13 12 12 14 12 12 10 8 7 7 9 10 6 13 19 17
6 6 5 8 14 21 28 26 20 16 10 5 7 4 13 32 8 2 13 24 15 13 13 14 14 14 13 11 8 7 7 8 11 10 5 8 10 12

GFSNE_500_avort_186.txt.gz
Vorticity
4 8 10 11 10 0 18 -11 -17 21 4 -5 1 16 23 8 6 7 8 8 6 4 3 3 5 6 4 7 4 5 4 6 6 6 5 7 11 13
3 10 7 8 3 1 -11 -5 11 4 4 9 11 10 4 7 7 7 7 5 3 3 4 5 4 6 5 4 5 6 6 6 9 16 16 14 13 18
8 7 9 4 7 -1 2 1 28 4 10 18 13 5 6 8 7 6 4 4 4 5 4 8 6 5 5 7 6 6 9 20 20 17 20 28 30 35
3 7 8 3 -4 -1 13 14 0 15 2 18 11 7 7 5 4 4 3 4 3 7 7 5 5 7 6 4 8 20 22 23 26 27 34 54 46 33
9 1 -2 3 4 -1 -5 16 19 19 3 7 7 7 4 4 3 3 4 6 9 5 6 6 6 5 9 13 26 24 28 24 32 50 34 26 16 9
12 6 -0 5 0 -4 7 19 4 6 5 6 5 4 3 3 4 3 7 6 6 4 6 5 7 9 22 22 27 27 31 43 35 24 9 9 11 15
-5 5 1 2 10 -2 12 5 6 6 6 6 3 4 5 4 7 7 5 5 5 5 4 8 17 19 18 21 27 37 39 24 13 8 11 18 18 16
0 3 -2 9 34 8 7 5 4 4 6 4 5 4 4 8 4 4 6 6 4 3 3 22 27 18 19 24 39 36 20 5 9 11 15 18 12 8
5 0 18 10 4 4 5 4 4 4 6 4 4 6 7 5 5 4 6 3 7 5 14 35 21 20 19 31 38 21 7 7 10 13 17 12 8 8
21 9 8 4 4 4 4 5 4 7 5 3 7 6 6 6 5 5 4 4 8 22 17 30 21 23 29 37 24 10 6 10 11 17 12 7 7 8
6 5 4 5 5 5 4 8 5 3 7 7 6 7 7 4 5 4 5 11 28 24 18 21 19 31 32 19 16 5 10 12 16 13 7 6 8 9
5 3 4 6 5 5 6 4 4 6 7 8 8 5 4 4 5 5 15 26 23 27 17 15 30 30 25 13 10 7 11 16 19 11 7 8 8 9
4 5 5 4 6 5 5 6 5 7 5 5 3 4 4 4 7 19 24 24 25 20 14 17 36 24 19 5 9 10 12 19 12 9 7 8 8 9
4 4 6 5 4 6 6 8 5 5 6 4 3 4 2 6 20 26 25 28 18 13 12 20 37 25 12 9 11 9 13 16 9 6 8 8 9 11
6 6 5 5 6 7 5 5 5 6 3 4 4 3 5 20 26 27 28 18 11 13 13 21 28 21 12 11 10 12 17 13 7 6 7 7 7 9
3 6 6 5 6 5 5 6 5 4 4 2 4 5 16 30 27 28 21 8 17 10 11 16 22 18 10 11 11 12 16 11 8 7 9 7 5 9
7 7 7 5 5 4 6 4 4 4 3 6 6 14 29 30 28 23 7 7 19 11 17 6 19 12 14 9 10 14 14 11 8 9 10 11 8 11
7 7 5 4 3 6 4 6 6 3 7 6 14 27 31 30 25 9 6 7 23 13 19 7 18 13 14 12 8 16 7 9 9 8 10 13 11 10
6 4 3 3 5 3 6 5 3 5 6 13 24 32 28 22 12 5 6 10 23 13 17 10 18 14 16 13 11 11 7 11 10 8 9 10 12 10
5 3 3 5 3 5 5 4 5 6 9 23 32 21 12 10 5 11 8 13 24 9 20 22 16 14 15 13 12 12 10 6 8 9 9 10 11 12
2 3 5 3 4 6 3 6 6 9 21 30 18 12 10 12 14 11 7 20 26 2 17 20 13 15 13 12 12 13 11 9 7 8 10 12 14 12
3 5 4 4 6 4 5 7 12 18 25 17 11 8 11 12 10 10 18 32 18 7 7 14 16 14 14 10 15 13 12 9 5 8 9 8 14 16
3 3 4 5 7 7 8 10 18 23 19 8 6 11 16 19 18 19 23 37 12 4 9 8 13 14 13 14 14 14 13 10 8 8 7 7 7 8

GFSNE_500_avort_189.txt.gz
Vorticity
2 5 6 5 6 5 -8 6 4 2 16 -4 -4 5 12 4 -0 13 22 6 8 7 4 4 3 3 3 5 5 8 4 4 4 7 6 5 4 7
11 8 4 7 1 11 8 7 14 3 5 -16 -1 8 8 7 12 11 12 6 6 4 3 3 3 4 5 6 5 4 6 6 6 6 2 10 21 15
2 3 5 3 18 10 6 9 -1 -4 -7 -5 7 5 14 20 14 7 6 6 4 3 3 4 5 7 8 5 7 6 5 6 3 9 23 18 21 30
15 15 5 2 4 15 8 3 0 -1 -7 9 3 24 4 7 6 5 4 4 4 5 5 7 5 5 6 6 4 7 2 8 25 20 23 32 29 43
-11 7 6 7 -3 -4 7 1 2 -5 15 -3 20 7 6 5 4 6 4 5 4 5 6 6 6 5 5 6 4 8 23 20 24 33 31 42 40 28
6 -3 -1 5 6 1 2 -5 -0 2 1 22 4 6 5 4 5 5 4 6 5 7 7 5 4 6 6 5 21 21 20 26 29 31 43 29 14 8
7 15 7 1 1 1 -2 8 10 19 15 5 5 4 4 3 6 4 4 6 5 5 2 6 5 4 11 19 21 20 27 25 31 41 23 8 8 13
5 2 -3 9 1 5 8 11 13 3 5 5 4 3 4 5 6 6 7 3 3 4 6 3 5 17 22 18 21 21 21 34 41 20 9 7 11 16
-2 6 11 10 3 7 15 8 3 5 4 4 4 6 4 6 6 6 7 6 6 4 3 8 22 24 23 21 18 18 27 40 17 8 7 9 12 17
4 -1 -1 8 16 9 3 3 5 5 3 4 6 5 6 5 6 6 3 5 3 4 6 28 20 25 23 18 13 17 37 28 11 7 10 11 16 11
11 8 12 21 5 2 4 5 4 4 4 7 6 5 7 6 6 3 6 4 3 11 14 32 25 23 19 14 18 17 31 24 7 12 11 16 14 7
13 18 4 3 4 4 6 5 5 6 5 6 8 8 6 5 4 7 3 3 6 24 16 27 25 17 13 17 24 16 19 13 8 14 19 15 8 7
4 5 3 3 6 5 4 4 6 6 6 7 6 5 5 5 5 4 5 6 17 28 21 23 23 12 14 15 30 17 14 9 10 17 18 10 8 8
4 2 5 5 5 5 5 6 6 4 5 5 5 4 5 5 6 5 8 16 28 27 24 17 10 12 15 10 29 16 12 11 9 18 13 8 6 6
5 5 4 5 5 4 6 5 5 6 5 5 4 6 4 5 3 5 14 25 29 21 17 9 6 13 18 13 29 19 10 13 10 14 11 7 5 6
5 4 5 5 5 6 6 7 6 6 5 4 5 4 5 7 7 10 21 27 24 16 7 7 7 17 21 11 20 17 18 11 11 14 11 9 7 8
6 4 4 6 6 8 6 6 5 5 5 5 6 6 6 9 5 17 24 22 15 12 8 14 10 24 13 15 17 18 15 10 14 11 12 13 8 8
4 4 5 7 6 4 6 4 4 5 4 7 7 7 8 7 13 26 18 13 15 14 15 11 7 23 12 23 18 15 20 8 9 12 10 12 9 6
6 4 6 6 6 6 4 4 5 5 6 7 7 6 8 12 22 17 11 13 14 18 17 15 19 18 12 20 14 15 14 15 8 11 8 10 9 8
5 6 7 6 6 4 5 5 6 8 7 5 6 9 11 19 14 12 17 19 21 23 20 20 26 12 8 16 17 12 12 11 11 12 9 10 8 9
7 8 6 5 4 6 4 5 7 6 5 7 8 10 14 14 15 19 22 23 24 23 20 27 20 8 9 11 14 15 13 12 12 10 13 9 7 10
6 5 3 5 6 4 4 7 6 6 8 10 11 17 15 14 18 24 27 28 25 23 24 30 10 6 8 9 11 15 15 12 13 14 16 14 5 11
4 2 5 6 4 5 7 6 6 9 9 11 15 16 14 17 22 26 23 23 24 28 32 13 8 8 5 6 9 12 17 16 14 12 14 14 10 6

GFSNE_500_avort_192.txt.gz
Vorticity
16 41 1 -8 -4 8 13 2 8 3 12 -1 -15 16 3 -4 -1 -9 9 4 12 24 12 5 7 5 4 3 5 6 5 5 5 4 6 5 5 5
-42 21 6 7 6 4 4 0 -3 1 -3 -4 16 6 -7 11 2 5 5 19 8 6 5 5 4 4 4 5 4 5 5 5 6 5 4 5 3 10
20 38 7 6 8 10 6 8 6 5 10 9 3 2 2 0 -4 9 19 10 6 5 5 3 5 4 6 5 5 6 6 6 5 4 3 9 17 15
33 21 7 9 11 14 7 8 15 16 8 6 8 -9 2 -4 17 19 7 6 4 4 4 5 6 5 6 6 6 5 6 4 2 5 17 18 20 26
-22 8 11 11 4 7 1 5 3 11 10 -3 3 -2 6 10 15 6 5 4 4 3 5 5 6 5 6 5 5 5 4 3 16 22 21 24 29 37
21 2 -0 -0 -5 33 6 1 4 1 -2 -1 1 10 15 12 5 4 6 6 6 7 7 6 6 6 5 3 5 3 7 19 25 24 27 30 33 42
9 9 10 16 9 8 8 6 -8 4 8 -0 7 17 6 5 6 5 3 6 6 5 6 6 4 5 4 4 7 14 25 24 24 27 20 33 38 21
8 11 18 2 2 3 2 7 6 4 6 4 15 6 6 5 5 5 5 6 5 6 6 4 4 4 4 10 17 27 22 23 19 17 27 34 22 11
12 8 8 4 5 9 4 5 9 1 14 13 5 5 5 5 6 5 7 8 6 6 4 6 5 1 11 19 28 20 20 15 14 20 38 24 15 6
3 3 12 11 5 13 14 10 -1 15 7 4 4 6 4 5 5 6 5 4 6 5 5 5 3 11 26 29 27 16 13 12 11 31 32 13 6 6
11 11 6 7 -4 -0 -0 19 12 4 4 5 4 4 6 6 6 4 4 7 5 6 3 3 10 17 39 28 17 11 11 10 10 28 29 10 11 10
1 9 0 -3 8 17 11 5 5 5 4 4 5 6 6 6 4 5 7 5 5 3 4 4 14 27 25 23 10 7 12 16 10 20 25 8 15 16
-11 3 5 14 9 6 5 4 4 3 5 5 6 7 7 5 6 6 4 5 5 7 6 10 21 20 19 21 16 7 14 21 9 17 17 8 12 22
1 13 11 6 4 4 4 4 5 6 5 6 9 5 6 6 5 5 4 5 10 5 9 15 19 18 20 19 20 12 17 21 6 19 15 9 11 16
12 3 4 4 4 3 5 5 4 5 7 7 4 7 5 4 6 5 6 11 9 4 16 14 17 18 20 19 16 10 19 15 13 20 16 11 9 14
3 3 4 4 6 5 3 4 5 7 6 5 8 5 3 4 6 6 8 9 7 17 11 13 18 20 21 19 19 15 16 17 23 19 16 13 10 12
6 6 4 5 4 4 5 5 8 6 6 8 4 4 4 4 7 6 10 8 8 13 19 20 19 22 25 21 21 21 10 15 21 17 19 14 14 11
6 6 6 6 6 7 6 6 5 5 6 4 4 3 5 7 7 9 9 4 13 23 22 22 24 29 25 20 23 20 7 13 16 16 22 10 15 13
6 6 5 5 6 6 5 5 5 4 5 4 4 9 8 9 10 8 8 12 22 21 23 27 27 29 27 22 12 17 6 11 12 13 15 14 7 15
7 6 5 7 7 6 6 4 4 5 5 5 10 7 8 10 6 9 15 19 18 22 34 22 21 26 26 29 9 6 13 10 12 14 15 13 12 10
6 4 4 10 6 6 4 5 5 5 8 9 7 7 10 7 8 16 16 17 22 33 33 24 24 26 30 18 9 6 6 10 11 13 16 16 13 13
6 5 9 6 5 5 5 4 5 9 8 6 7 11 7 7 15 15 17 18 31 33 27 26 23 19 15 12 9 5 5 3 3 6 13 18 15 15
5 9 6 5 5 5 5 6 9 6 6 9 10 10 10 12 15 15 15 30 33 28 20 21 13 13 10 10 10 6 5 6 6 4 5 17 20 17

GFSNE_500_avort_195.txt.gz
Vorticity
3 14 17 18 17 17 40 -2 3 11 5 8 18 10 8 8 -5 -3 6 14 2 9 -3 8 14 13 8 6 5 5 5 6 6 6 4 5 6 6
10 39 1 -14 12 11 -0 4 5 10 9 14 12 9 5 -4 7 -7 -2 2 -3 -1 1 17 15 8 5 6 6 5 5 8 6 5 5 5 6 5
28 16 25 14 -19 43 2 6 6 6 7 -1 -5 -7 6 7 9 7 9 6 3 -9 14 10 7 4 6 6 6 6 6 6 5 4 5 5 5 3
22 38 31 29 30 19 18 9 -0 9 8 10 6 19 8 8 6 1 15 1 8 12 11 6 5 7 5 6 7 6 5 4 4 6 4 5 6 18
1 7 11 20 6 6 23 8 4 1 -1 3 -4 -7 10 6 2 6 0 7 13 7 5 6 6 6 6 6 7 5 4 5 5 6 6 14 21 19
-7 -5 11 19 20 17 6 9 13 10 9 3 8 5 -3 9 3 2 7 13 7 6 5 6 7 6 5 7 5 3 5 4 5 4 13 25 23 21
15 48 20 6 4 7 3 6 -5 -1 11 -2 -5 12 10 12 5 4 11 8 6 6 7 5 6 5 6 5 4 5 4 5 4 14 28 27 21 22
37 -1 -1 1 14 5 2 0 7 -19 22 21 15 8 8 3 10 9 5 4 7 6 6 6 6 6 4 4 4 5 6 8 13 26 30 22 18 18
35 25 10 4 8 2 7 13 14 17 12 -0 -0 7 -2 9 8 7 6 7 6 5 6 6 5 3 4 5 7 8 7 13 23 29 22 16 15 12
4 5 11 6 7 11 12 11 8 7 -4 10 9 7 8 6 5 7 6 6 9 6 6 6 4 3 3 8 10 10 15 20 26 20 18 15 13 11
7 7 7 10 15 14 3 2 6 9 3 10 9 7 6 6 6 5 8 8 4 5 5 5 5 4 2 7 13 17 20 20 20 19 20 16 14 9
21 27 8 12 1 7 3 -4 -4 12 10 6 6 5 6 4 7 7 5 4 6 5 5 3 3 4 3 7 19 18 20 16 18 19 19 12 16 8
13 13 1 2 1 5 6 9 9 6 5 4 4 4 5 7 7 5 6 7 6 4 4 4 5 5 11 19 21 20 16 22 21 18 14 15 13 10
-0 7 10 7 4 9 7 7 5 4 4 4 4 5 6 9 6 7 7 3 4 4 4 8 5 8 17 17 17 20 24 27 23 20 15 16 15 15
5 7 4 11 9 6 4 3 4 4 4 4 5 8 8 5 6 6 3 3 6 5 9 10 7 16 17 16 23 26 32 33 23 20 20 12 18 16
10 11 8 5 5 4 3 3 5 4 5 7 8 7 5 5 5 4 3 6 7 14 7 6 12 16 20 23 28 33 32 31 21 22 13 14 14 14
7 4 4 4 3 4 5 5 4 6 8 9 6 4 6 4 5 5 6 6 11 8 4 8 13 20 27 33 32 25 30 24 20 14 10 16 16 14
4 4 5 5 5 5 5 6 8 9 8 4 3 5 4 4 4 5 7 10 7 6 11 13 16 24 37 33 22 23 27 21 17 10 11 14 15 15
4 5 5 5 6 6 6 5 8 7 4 5 5 4 4 5 6 8 8 12 7 11 12 16 23 34 33 34 25 17 22 11 10 9 10 11 11 15
6 5 5 6 7 7 8 7 7 4 4 5 5 4 4 8 10 12 9 9 11 12 18 23 30 31 27 28 29 8 17 11 8 6 5 4 6 7
6 5 6 7 8 8 7 7 5 5 3 3 3 6 9 12 13 8 10 9 13 18 21 31 31 25 20 20 16 8 5 11 12 7 5 7 6 7
5 10 10 9 7 7 6 4 4 3 2 4 11 11 14 9 8 10 12 15 17 19 27 26 31 16 9 10 10 9 7 5 8 7 6 8 9 12
13 10 9 9 7 4 3 4 2 3 7 9 9 13 8 8 11 13 15 16 16 26 21 29 28 12 8 10 9 6 6 4 6 2 2 7 10 11